This demonstration page uses our WeatherBlox Daily Observations layout. Learn more.

Left ArrowRight Arrow

Hourly Observations for April 23, 2016

Temp ( °F °C ) Dew Point ( °F °C ) Humidity (%) Winds ( mph kmh ) Pressure ( in mb ) Visibility ( mi km ) Precip ( " mm )
12:51 am 00:51 Clear 72 22.2 38 3.3 29 29 E 9 15 29.82 1010 10 16 0.00 0.00
1:51 am 01:51 Clear 69 20.6 41 5 36 36 E 9 15 29.82 1010 10 16 0.00 0.00
2:51 am 02:51 Clear 64 17.8 41 5 43 43 ESE 5 7 29.81 1010 10 16 0.00 0.00
3:51 am 03:51 Clear 62 16.7 41 5 46 46 E 6 9 29.82 1010 10 16 0.00 0.00
4:51 am 04:51 Clear 60 15.6 40 4.4 47 47 ESE 5 7 29.82 1010 10 16 0.00 0.00
5:51 am 05:51 Sunny 55 12.8 37 2.8 51 51 N 8 13 29.85 1011 10 16 0.00 0.00
6:51 am 06:51 Sunny 62 16.7 40 4.4 44 44 Calm 29.83 1010 10 16 0.00 0.00
7:51 am 07:51 Sunny 71 21.7 45 7.2 39 39 ESE 8 13 29.83 1010 10 16 0.00 0.00
8:51 am 08:51 Sunny 74 23.3 42 5.6 32 32 ENE 5 7 29.82 1010 10 16 0.00 0.00
9:51 am 09:51 Sunny 78 25.6 40 4.4 26 26 ESE 8 13 29.81 1009 10 16 0.00 0.00
10:51 am 10:51 Sunny 80 26.7 38 3.3 22 22 Calm 29.79 1009 10 16 0.00 0.00
11:51 am 11:51 Sunny 83 28.3 35 1.7 18 18 Calm 29.75 1007 10 16 0.00 0.00
12:51 pm 12:51 Sunny 86 30 32 0 14 14 WSW 8 13 29.71 1006 10 16 0.00 0.00
1:51 pm 13:51 Sunny 89 31.7 28 -2.2 11 11 WSW 10 17 29.67 1005 10 16 0.00 0.00
2:51 pm 14:51 Sunny 89 31.7 16 -8.9 7 7 W 23 37 29.66 1004 10 16 0.00 0.00
3:51 pm 15:51 Sunny 89 31.7 12 -11.1 5 5 WSW 15 24 29.64 1004 10 16 0.00 0.00
4:51 pm 16:51 Sunny 87 30.6 24 -4.4 10 10 WNW 23 37 29.65 1004 10 16 0.00 0.00
5:51 pm 17:51 Sunny 83 28.3 29 -1.7 14 14 WNW 25 41 29.66 1005 10 16 0.00 0.00
6:51 pm 18:51 Sunny 79 26.1 32 0 18 18 WNW 20 31 29.67 1005 10 16 0.00 0.00
7:51 pm 19:51 Clear 75 23.9 37 2.8 25 25 NW 18 30 29.70 1006 10 16 0.00 0.00
8:51 pm 20:51 Clear 73 22.8 39 3.9 29 29 NW 18 30 29.71 1006 10 16 0.00 0.00
9:51 pm 21:51 Clear 70 21.1 40 4.4 34 34 WNW 13 20 29.73 1007 10 16 0.00 0.00
10:51 pm 22:51 Clear 68 20 39 3.9 35 35 NW 14 22 29.74 1007 10 16 0.00 0.00
11:51 pm 23:51 Clear 65 18.3 34 1.1 32 32 NW 14 22 29.75 1008 10 16 0.00 0.00

Powered by AerisWeather